Tracking 23752 objects as of 24-Oct-2021
HD Live streaming from Space Station
objects crossing your sky now

SMS 2 AKM

Track SMS 2 AKM now!


NORAD ID: 20835
Int'l Code: 1975-011F
Perigee: 35,879.9 km
Apogee: 36,666.0 km
Inclination: 8.1 °
Period: 1,460.6 minutes
Semi major axis: 42643 km
RCS: 0.7943 m2 (medium)
Launch date: February 6, 1975
Source: United States (US)
Launch site: AIR FORCE EASTERN TEST RANGE (AFETR)

Note: This is a ROCKET BODY
aabbcc
Your satellite tracking list
Your tracking list is empty




NASA's NSSDC Master Catalog

Two Line Element Set (TLE):
1 20835U 75011F   21296.48332750 -.00000052  00000-0  00000-0 0  9992
2 20835   8.1310 295.3704 0092168  91.8784 279.0045  0.98586275 29846
Source of the keplerian elements: AFSPC